START_TIME,STEP,MOV.,AL01,t_acc.,AL02,t_acc.,E37,t_acc.,H21,t_acc.
1979-08-06 15:00:32.810 ,1,0,0.,24.0,0.,24.0,0.,24.0,0.,24.0
1979-08-06 15:00:56.810 ,2,1,1.,24.0,0.,24.0,0.,24.0,0.,24.0
1979-08-06 15:01:20.810 ,2,0,0.,24.0,0.,24.0,1.,24.0,0.,24.0
1979-08-06 15:01:44.810 ,3,1,0.,24.0,0.,24.0,0.,24.0,0.,24.0
1979-08-06 15:02:08.810 ,3,0,0.,24.0,0.,24.0,0.,24.0,0.,24.0
1979-08-06 15:02:32.810 ,4,1,1.,24.0,0.,24.0,0.,24.0,0.,24.0
1979-08-06 15:02:56.810 ,4,0,0.,24.0,0.,24.0,2.,24.0,0.,24.0
1979-08-06 15:03:20.810 ,5,1,0.,24.0,0.,24.0,1.,24.0,0.,24.0
1979-08-06 15:03:44.810 ,5,0,1.,24.0,0.,24.0,0.,24.0,0.,24.0
1979-08-06 15:04:08.810 ,6,1,0.,24.0,0.,24.0,0.,24.0,0.,24.0
1979-08-06 15:04:32.810 ,6,0,0.,24.0,0.,24.0,0.,24.0,0.,24.0
1979-08-06 15:04:56.810 ,7,1,8.,24.0,0.,24.0,0.,24.0,0.,24.0
1979-08-06 15:05:20.810 ,7,0,26.,24.0,0.,24.0,0.,24.0,0.,24.0
1979-08-06 15:05:44.810 ,7,1,23.,24.0,1.,24.0,0.,24.0,0.,24.0
1979-08-06 15:06:08.810 ,7,0,39.,24.0,0.,24.0,0.,24.0,0.,24.0
1979-08-06 15:06:32.810 ,6,1,25.,24.0,0.,24.0,1.,24.0,0.,24.0
1979-08-06 15:06:56.810 ,6,0,0.,24.0,0.,24.0,3.,24.0,0.,24.0
1979-08-06 15:07:20.810 ,5,1,0.,24.0,0.,24.0,2.,24.0,0.,24.0
1979-08-06 15:07:44.810 ,5,0,0.,24.0,0.,24.0,2.,24.0,0.,24.0
1979-08-06 15:08:08.810 ,4,1,0.,24.0,0.,24.0,2.,24.0,0.,24.0
1979-08-06 15:08:32.810 ,4,0,0.,24.0,0.,24.0,2.,24.0,0.,24.0
1979-08-06 15:08:56.810 ,3,1,0.,24.0,0.,24.0,0.,24.0,0.,24.0
1979-08-06 15:09:20.810 ,3,0,0.,24.0,0.,24.0,0.,24.0,0.,24.0
1979-08-06 15:09:44.810 ,2,1,0.,24.0,0.,24.0,1.,24.0,0.,24.0
1979-08-06 15:10:08.810 ,2,0,0.,24.0,0.,24.0,1.,24.0,0.,24.0
1979-08-06 15:10:32.810 ,1,1,0.,24.0,0.,24.0,1.,24.0,0.,24.0
1979-08-06 15:10:56.810 ,1,0,3.,24.0,0.,24.0,0.,24.0,0.,24.0
1979-08-06 15:11:20.810 ,0,1,0.,24.0,0.,24.0,0.,24.0,0.,24.0
1979-08-06 15:11:44.810 ,0,0,1.,24.0,0.,24.0,1.,24.0,0.,24.0
1979-08-06 15:12:08.810 ,0,1,1.,24.0,0.,24.0,1.,24.0,0.,24.0
1979-08-06 15:12:32.810 ,0,0,1.,24.0,0.,24.0,1.,24.0,0.,24.0
1979-08-06 15:12:56.810 ,1,1,1.,24.0,0.,24.0,0.,24.0,0.,24.0
1979-08-06 15:13:20.810 ,1,0,0.,24.0,0.,24.0,2.,24.0,0.,24.0
1979-08-06 15:13:44.810 ,2,1,1.,24.0,1.,24.0,0.,24.0,0.,24.0
1979-08-06 15:14:08.810 ,2,0,0.,24.0,0.,24.0,1.,24.0,0.,24.0
1979-08-06 15:14:32.810 ,3,1,0.,24.0,0.,24.0,1.,24.0,0.,24.0
1979-08-06 15:14:56.810 ,3,0,0.,24.0,0.,24.0,1.,24.0,0.,24.0
1979-08-06 15:15:20.810 ,4,1,0.,24.0,0.,24.0,2.,24.0,0.,24.0
1979-08-06 15:15:44.810 ,4,0,0.,24.0,0.,24.0,1.,24.0,0.,24.0
1979-08-06 15:16:08.810 ,5,1,0.,24.0,0.,24.0,2.,24.0,0.,24.0
1979-08-06 15:16:32.810 ,5,0,0.,24.0,0.,24.0,0.,24.0,0.,24.0
1979-08-06 15:16:56.810 ,6,1,0.,24.0,0.,24.0,0.,24.0,0.,24.0
1979-08-06 15:17:20.810 ,6,0,0.,24.0,0.,24.0,2.,24.0,0.,24.0
1979-08-06 15:17:44.810 ,7,1,9.,24.0,0.,24.0,0.,24.0,0.,24.0
1979-08-06 15:18:08.810 ,7,0,38.,24.0,0.,24.0,0.,24.0,0.,24.0
1979-08-06 15:18:32.810 ,7,1,33.,24.0,0.,24.0,1.,24.0,0.,24.0
1979-08-06 15:18:56.810 ,7,0,33.,24.0,0.,24.0,1.,24.0,0.,24.0
1979-08-06 15:19:20.810 ,6,1,25.,24.0,0.,24.0,1.,24.0,0.,24.0
1979-08-06 15:19:44.810 ,6,0,0.,24.0,0.,24.0,1.,24.0,0.,24.0
1979-08-06 15:20:08.810 ,5,1,0.,24.0,0.,24.0,1.,24.0,0.,24.0
1979-08-06 15:20:32.810 ,5,0,0.,24.0,0.,24.0,1.,24.0,0.,24.0
1979-08-06 15:20:56.810 ,4,1,0.,24.0,0.,24.0,1.,24.0,0.,24.0
1979-08-06 15:21:20.810 ,4,0,0.,24.0,0.,24.0,0.,24.0,0.,24.0
1979-08-06 15:21:44.810 ,3,1,0.,24.0,0.,24.0,2.,24.0,0.,24.0
1979-08-06 15:22:08.810 ,3,0,0.,24.0,0.,24.0,0.,24.0,0.,24.0
1979-08-06 15:22:32.810 ,2,1,0.,24.0,0.,24.0,0.,24.0,0.,24.0
1979-08-06 15:22:56.810 ,2,0,0.,24.0,0.,24.0,2.,24.0,0.,24.0
1979-08-06 15:23:20.810 ,1,1,0.,24.0,0.,24.0,2.,24.0,0.,24.0
1979-08-06 15:23:44.810 ,1,0,1.,24.0,0.,24.0,2.,24.0,0.,24.0
1979-08-06 15:24:08.810 ,0,1,1.,24.0,0.,24.0,0.,24.0,0.,24.0
1979-08-06 15:24:32.810 ,0,0,2.,24.0,1.,24.0,0.,24.0,0.,24.0
1979-08-06 15:24:56.810 ,0,1,0.,24.0,0.,24.0,2.,24.0,0.,24.0
1979-08-06 15:25:20.810 ,0,0,0.,24.0,1.,24.0,2.,24.0,0.,24.0
1979-08-06 15:25:44.810 ,1,1,0.,24.0,1.,24.0,1.,24.0,0.,24.0
1979-08-06 15:26:08.810 ,1,0,0.,24.0,1.,24.0,2.,24.0,0.,24.0
1979-08-06 15:26:32.810 ,2,1,0.,24.0,0.,24.0,0.,24.0,0.,24.0
1979-08-06 15:26:56.810 ,2,0,0.,24.0,0.,24.0,1.,24.0,0.,24.0
1979-08-06 15:27:20.810 ,3,1,0.,24.0,0.,24.0,0.,24.0,0.,24.0
1979-08-06 15:27:44.810 ,3,0,0.,24.0,0.,24.0,1.,24.0,0.,24.0
1979-08-06 15:28:08.810 ,4,1,1.,24.0,0.,24.0,1.,24.0,0.,24.0
1979-08-06 15:28:32.810 ,4,0,0.,24.0,0.,24.0,0.,24.0,0.,24.0
1979-08-06 15:28:56.810 ,5,1,0.,24.0,0.,24.0,0.,24.0,0.,24.0
1979-08-06 15:29:20.810 ,5,0,0.,24.0,0.,24.0,2.,24.0,0.,24.0
1979-08-06 15:29:44.810 ,6,1,0.,24.0,0.,24.0,2.,24.0,0.,24.0
1979-08-06 15:30:08.810 ,6,0,1.,24.0,0.,24.0,0.,24.0,0.,24.0
1979-08-06 15:30:32.810 ,7,0,8.,24.0,0.,24.0,1.,24.0,0.,24.0
1979-08-06 15:30:56.810 ,7,0,27.,24.0,0.,24.0,0.,24.0,0.,24.0
1979-08-06 15:31:20.810 ,5,1,18.,24.0,0.,24.0,1.,24.0,0.,24.0
1979-08-06 15:31:44.810 ,1,1,0.,24.0,0.,24.0,0.,24.0,0.,24.0
1979-08-06 15:32:08.810 ,2,1,0.,24.0,1.,24.0,1.,24.0,0.,24.0
1979-08-06 15:32:32.810 ,6,1,1.,24.0,0.,24.0,0.,24.0,0.,24.0
1979-08-06 15:32:56.810 ,5,1,19.,24.0,0.,24.0,0.,24.0,0.,24.0
1979-08-06 15:33:20.810 ,1,1,0.,24.0,0.,24.0,1.,24.0,0.,24.0
1979-08-06 15:33:44.810 ,2,1,1.,24.0,0.,24.0,1.,24.0,0.,24.0
1979-08-06 15:34:08.810 ,6,1,0.,24.0,0.,24.0,2.,24.0,0.,24.0
1979-08-06 15:34:32.810 ,5,1,13.,24.0,0.,24.0,1.,24.0,0.,24.0
1979-08-06 15:34:56.810 ,1,1,1.,24.0,0.,24.0,1.,24.0,0.,24.0
1979-08-06 15:35:20.810 ,2,1,1.,24.0,0.,24.0,0.,24.0,0.,24.0
1979-08-06 15:35:44.810 ,6,1,0.,24.0,1.,24.0,0.,24.0,0.,24.0
1979-08-06 15:36:08.810 ,5,1,20.,24.0,0.,24.0,1.,24.0,0.,24.0
1979-08-06 15:36:32.810 ,1,1,0.,24.0,0.,24.0,2.,24.0,0.,24.0
1979-08-06 15:36:56.810 ,2,1,0.,24.0,0.,24.0,0.,24.0,0.,24.0
1979-08-06 15:37:20.810 ,6,1,0.,24.0,0.,24.0,0.,24.0,0.,24.0
1979-08-06 15:37:44.810 ,5,1,14.,24.0,0.,24.0,2.,24.0,0.,24.0
1979-08-06 15:38:08.810 ,1,1,0.,24.0,0.,24.0,1.,24.0,0.,24.0
1979-08-06 15:38:32.810 ,2,1,1.,24.0,1.,24.0,0.,24.0,0.,24.0
1979-08-06 15:38:56.810 ,6,1,0.,24.0,0.,24.0,1.,24.0,0.,24.0
1979-08-06 15:39:20.810 ,5,1,10.,24.0,0.,24.0,2.,24.0,0.,24.0
1979-08-06 15:39:44.810 ,1,1,1.,24.0,0.,24.0,0.,24.0,0.,24.0
1979-08-06 15:40:08.810 ,2,1,0.,24.0,0.,24.0,0.,24.0,0.,24.0
1979-08-06 15:40:32.810 ,6,1,0.,24.0,0.,24.0,0.,24.0,0.,24.0
1979-08-06 15:40:56.810 ,5,1,21.,24.0,0.,24.0,1.,24.0,0.,24.0
1979-08-06 15:41:20.810 ,1,1,0.,24.0,0.,24.0,1.,24.0,0.,24.0
1979-08-06 15:41:44.810 ,0,0,0.,24.0,0.,24.0,0.,24.0,0.,24.0
1979-08-06 15:42:08.810 ,0,0,0.,24.0,0.,24.0,2.,24.0,0.,24.0
1979-08-06 15:42:32.810 ,5,1,15.,24.0,0.,24.0,2.,24.0,0.,24.0
1979-08-06 15:42:56.810 ,5,0,0.,24.0,0.,24.0,5.,24.0,0.,24.0
1979-08-06 15:43:20.810 ,4,1,0.,24.0,0.,24.0,1.,24.0,0.,24.0
1979-08-06 15:43:44.810 ,4,0,1.,24.0,0.,24.0,2.,24.0,0.,24.0
1979-08-06 15:44:08.810 ,3,1,0.,24.0,0.,24.0,2.,24.0,0.,24.0
1979-08-06 15:44:32.810 ,3,0,0.,24.0,1.,24.0,1.,24.0,0.,24.0
1979-08-06 15:44:56.810 ,2,1,0.,24.0,0.,24.0,1.,24.0,0.,24.0
1979-08-06 15:45:20.810 ,2,0,0.,24.0,0.,24.0,1.,24.0,0.,24.0
1979-08-06 15:45:44.810 ,1,1,0.,24.0,0.,24.0,0.,24.0,0.,24.0
1979-08-06 15:46:08.810 ,1,0,0.,24.0,0.,24.0,0.,24.0,0.,24.0
1979-08-06 15:46:32.810 ,0,1,0.,24.0,0.,24.0,0.,24.0,0.,24.0
1979-08-06 15:46:56.810 ,0,0,0.,24.0,0.,24.0,0.,24.0,0.,24.0
1979-08-06 15:47:20.810 ,0,1,1.,24.0,0.,24.0,0.,24.0,0.,24.0
1979-08-06 15:47:44.810 ,0,0,0.,24.0,0.,24.0,0.,24.0,0.,24.0
1979-08-06 15:48:08.810 ,1,1,0.,24.0,0.,24.0,0.,24.0,0.,24.0
1979-08-06 15:48:32.810 ,1,0,0.,24.0,0.,24.0,0.,24.0,0.,24.0
1979-08-06 15:48:56.810 ,2,1,1.,24.0,1.,24.0,0.,24.0,0.,24.0
1979-08-06 15:49:20.810 ,2,0,0.,24.0,0.,24.0,0.,24.0,0.,24.0
1979-08-06 15:49:44.810 ,3,1,0.,24.0,0.,24.0,1.,24.0,0.,24.0
1979-08-06 15:50:08.810 ,3,0,0.,24.0,0.,24.0,1.,24.0,0.,24.0
1979-08-06 15:50:32.810 ,4,1,0.,24.0,0.,24.0,0.,24.0,0.,24.0
1979-08-06 15:50:56.810 ,4,0,0.,24.0,0.,24.0,0.,24.0,0.,24.0
1979-08-06 15:51:20.810 ,5,1,0.,24.0,0.,24.0,0.,24.0,0.,24.0
1979-08-06 15:51:44.810 ,5,0,0.,24.0,0.,24.0,0.,24.0,0.,24.0
1979-08-06 15:52:08.810 ,6,1,0.,24.0,0.,24.0,3.,24.0,0.,24.0
1979-08-06 15:52:32.810 ,6,0,1.,24.0,0.,24.0,0.,24.0,0.,24.0
1979-08-06 15:52:56.810 ,7,1,5.,24.0,0.,24.0,1.,24.0,0.,24.0
1979-08-06 15:53:20.810 ,7,0,26.,24.0,0.,24.0,1.,24.0,0.,24.0
1979-08-06 15:53:44.810 ,7,1,29.,24.0,0.,24.0,0.,24.0,0.,24.0
1979-08-06 15:54:08.810 ,7,0,23.,24.0,0.,24.0,0.,24.0,0.,24.0
1979-08-06 15:54:32.810 ,6,1,24.,24.0,0.,24.0,0.,24.0,0.,24.0
1979-08-06 15:54:56.810 ,6,0,0.,24.0,0.,24.0,0.,24.0,0.,24.0
1979-08-06 15:55:20.810 ,5,1,0.,24.0,0.,24.0,0.,24.0,0.,24.0
1979-08-06 15:55:44.810 ,5,0,0.,24.0,0.,24.0,0.,24.0,0.,24.0
1979-08-06 15:56:08.810 ,4,1,0.,24.0,0.,24.0,0.,24.0,0.,24.0
1979-08-06 15:56:32.810 ,4,0,0.,24.0,0.,24.0,1.,24.0,0.,24.0
1979-08-06 15:56:56.810 ,3,1,0.,24.0,0.,24.0,0.,24.0,0.,24.0
1979-08-06 15:57:20.810 ,3,0,0.,24.0,0.,24.0,0.,24.0,0.,24.0
1979-08-06 15:57:44.810 ,2,1,0.,24.0,0.,24.0,0.,24.0,0.,24.0
1979-08-06 15:58:08.810 ,2,0,0.,24.0,0.,24.0,0.,24.0,0.,24.0
1979-08-06 15:58:32.810 ,1,1,0.,24.0,1.,24.0,0.,24.0,0.,24.0
1979-08-06 15:58:56.810 ,1,0,0.,24.0,0.,24.0,0.,24.0,0.,24.0
1979-08-06 15:59:20.810 ,0,1,2.,24.0,0.,24.0,0.,24.0,0.,24.0
1979-08-06 15:59:44.810 ,0,0,0.,24.0,1.,24.0,0.,24.0,0.,24.0
1979-08-06 16:00:08.810 ,0,1,3.,24.0,0.,24.0,0.,24.0,0.,24.0
1979-08-06 16:00:32.810 ,0,0,0.,24.0,0.,24.0,0.,24.0,0.,24.0
1979-08-06 16:00:56.810 ,1,1,0.,24.0,1.,24.0,1.,24.0,0.,24.0
1979-08-06 16:01:20.810 ,1,0,0.,24.0,0.,24.0,0.,24.0,0.,24.0
1979-08-06 16:01:44.810 ,2,1,1.,24.0,0.,24.0,2.,24.0,0.,24.0
1979-08-06 16:02:08.810 ,2,0,0.,24.0,0.,24.0,0.,24.0,0.,24.0
1979-08-06 16:02:32.810 ,3,1,0.,24.0,0.,24.0,1.,24.0,0.,24.0
1979-08-06 16:02:56.810 ,3,0,1.,24.0,0.,24.0,0.,24.0,0.,24.0
1979-08-06 16:03:20.810 ,4,1,0.,24.0,0.,24.0,0.,24.0,0.,24.0
1979-08-06 16:03:44.810 ,4,0,0.,24.0,0.,24.0,0.,24.0,0.,24.0
1979-08-06 16:04:08.810 ,5,1,0.,24.0,0.,24.0,0.,24.0,0.,24.0
1979-08-06 16:04:32.810 ,5,0,0.,24.0,0.,24.0,0.,24.0,0.,24.0
1979-08-06 16:04:56.810 ,6,1,0.,24.0,0.,24.0,0.,24.0,0.,24.0
1979-08-06 16:05:20.810 ,6,0,0.,24.0,0.,24.0,2.,24.0,0.,24.0
1979-08-06 16:05:44.810 ,7,1,11.,24.0,0.,24.0,0.,24.0,0.,24.0
1979-08-06 16:06:08.810 ,7,0,32.,24.0,0.,24.0,0.,24.0,0.,24.0
1979-08-06 16:06:32.810 ,7,1,43.,24.0,0.,24.0,1.,24.0,0.,24.0
1979-08-06 16:06:56.810 ,7,0,25.,24.0,0.,24.0,1.,24.0,0.,24.0
1979-08-06 16:07:20.810 ,6,1,19.,24.0,0.,24.0,1.,24.0,0.,24.0
1979-08-06 16:07:44.810 ,6,0,0.,24.0,1.,24.0,0.,24.0,0.,24.0
1979-08-06 16:08:08.810 ,5,1,0.,24.0,0.,24.0,0.,24.0,0.,24.0
1979-08-06 16:08:32.810 ,5,0,0.,24.0,1.,24.0,1.,24.0,0.,24.0
1979-08-06 16:08:56.810 ,4,1,0.,24.0,0.,24.0,0.,24.0,0.,24.0
1979-08-06 16:09:20.810 ,4,0,0.,24.0,0.,24.0,1.,24.0,0.,24.0
1979-08-06 16:09:44.810 ,3,1,0.,24.0,1.,24.0,2.,24.0,0.,24.0
1979-08-06 16:10:08.810 ,3,0,0.,24.0,0.,24.0,0.,24.0,0.,24.0
1979-08-06 16:10:32.810 ,2,1,0.,24.0,0.,24.0,1.,24.0,0.,24.0
1979-08-06 16:10:56.810 ,2,0,0.,24.0,0.,24.0,1.,24.0,0.,24.0
1979-08-06 16:11:20.810 ,1,1,0.,24.0,0.,24.0,0.,24.0,0.,24.0
1979-08-06 16:11:44.810 ,1,0,0.,24.0,0.,24.0,1.,24.0,0.,24.0
1979-08-06 16:12:08.810 ,0,1,0.,24.0,0.,24.0,0.,24.0,0.,24.0
1979-08-06 16:12:32.810 ,0,0,1.,24.0,0.,24.0,0.,24.0,0.,24.0
1979-08-06 16:12:56.810 ,0,1,3.,24.0,0.,24.0,2.,24.0,0.,24.0
1979-08-06 16:13:20.810 ,0,0,2.,24.0,0.,24.0,0.,24.0,0.,24.0
1979-08-06 16:13:44.810 ,1,1,1.,24.0,0.,24.0,3.,24.0,0.,24.0
1979-08-06 16:14:08.810 ,1,0,0.,24.0,0.,24.0,0.,24.0,0.,24.0
1979-08-06 16:14:32.810 ,2,1,0.,24.0,0.,24.0,0.,24.0,0.,24.0
1979-08-06 16:14:56.810 ,2,0,0.,24.0,0.,24.0,0.,24.0,0.,24.0
1979-08-06 16:15:20.810 ,3,1,0.,24.0,0.,24.0,0.,24.0,0.,24.0
1979-08-06 16:15:44.810 ,3,0,0.,24.0,0.,24.0,0.,24.0,0.,24.0
1979-08-06 16:16:08.810 ,4,1,0.,24.0,0.,24.0,0.,24.0,0.,24.0
1979-08-06 16:16:32.810 ,4,0,0.,24.0,0.,24.0,2.,24.0,0.,24.0
1979-08-06 16:16:56.810 ,5,1,0.,24.0,0.,24.0,3.,24.0,0.,24.0
1979-08-06 16:17:20.810 ,5,0,0.,24.0,0.,24.0,0.,24.0,0.,24.0
1979-08-06 16:17:44.810 ,6,1,0.,24.0,0.,24.0,2.,24.0,0.,24.0
1979-08-06 16:18:08.810 ,6,0,0.,24.0,1.,24.0,1.,24.0,0.,24.0
1979-08-06 16:18:32.810 ,7,0,8.,24.0,0.,24.0,0.,24.0,0.,24.0
1979-08-06 16:18:56.810 ,7,0,34.,24.0,0.,24.0,1.,24.0,0.,24.0
1979-08-06 16:19:20.810 ,5,1,18.,24.0,0.,24.0,0.,24.0,0.,24.0
1979-08-06 16:19:44.810 ,1,1,0.,24.0,0.,24.0,2.,24.0,0.,24.0
1979-08-06 16:20:08.810 ,2,1,1.,24.0,0.,24.0,1.,24.0,0.,24.0
1979-08-06 16:20:32.810 ,6,1,0.,24.0,0.,24.0,0.,24.0,0.,24.0
1979-08-06 16:20:56.810 ,5,1,15.,24.0,0.,24.0,0.,24.0,0.,24.0
1979-08-06 16:21:20.810 ,1,1,0.,24.0,0.,24.0,0.,24.0,0.,24.0
1979-08-06 16:21:44.810 ,2,1,1.,24.0,0.,24.0,1.,24.0,0.,24.0
1979-08-06 16:22:08.810 ,6,1,0.,24.0,0.,24.0,1.,24.0,0.,24.0
1979-08-06 16:22:32.810 ,5,1,12.,24.0,0.,24.0,2.,24.0,0.,24.0
1979-08-06 16:22:56.810 ,1,1,0.,24.0,0.,24.0,1.,24.0,0.,24.0
1979-08-06 16:23:20.810 ,2,1,0.,24.0,1.,24.0,1.,24.0,0.,24.0
1979-08-06 16:23:44.810 ,6,1,0.,24.0,0.,24.0,2.,24.0,0.,24.0
1979-08-06 16:24:08.810 ,5,1,19.,24.0,0.,24.0,4.,24.0,0.,24.0
1979-08-06 16:24:32.810 ,1,1,0.,24.0,0.,24.0,1.,24.0,0.,24.0
1979-08-06 16:24:56.810 ,2,1,1.,24.0,0.,24.0,1.,24.0,0.,24.0
1979-08-06 16:25:20.810 ,6,1,0.,24.0,0.,24.0,0.,24.0,0.,24.0
1979-08-06 16:25:44.810 ,5,1,10.,24.0,0.,24.0,1.,24.0,0.,24.0
1979-08-06 16:26:08.810 ,1,1,1.,24.0,0.,24.0,1.,24.0,0.,24.0
1979-08-06 16:26:32.810 ,2,1,0.,24.0,0.,24.0,1.,24.0,0.,24.0
1979-08-06 16:26:56.810 ,6,1,0.,24.0,0.,24.0,2.,24.0,0.,24.0
1979-08-06 16:27:20.810 ,5,1,17.,24.0,0.,24.0,4.,24.0,0.,24.0
1979-08-06 16:27:44.810 ,1,1,0.,24.0,0.,24.0,0.,24.0,0.,24.0
1979-08-06 16:28:08.810 ,2,1,0.,24.0,0.,24.0,2.,24.0,0.,24.0
1979-08-06 16:28:32.810 ,6,1,0.,24.0,0.,24.0,3.,24.0,0.,24.0
1979-08-06 16:28:56.810 ,5,1,13.,24.0,0.,24.0,2.,24.0,0.,24.0
1979-08-06 16:29:20.810 ,1,1,2.,24.0,0.,24.0,2.,24.0,0.,24.0
1979-08-06 16:29:44.810 ,0,0,0.,24.0,0.,24.0,1.,24.0,0.,24.0
1979-08-06 16:30:08.810 ,0,0,0.,24.0,0.,24.0,4.,24.0,0.,24.0
1979-08-06 16:30:32.810 ,5,1,15.,24.0,0.,24.0,3.,24.0,0.,24.0
1979-08-06 16:30:56.810 ,5,0,1.,24.0,0.,24.0,8.,24.0,0.,24.0
1979-08-06 16:31:20.810 ,4,1,0.,24.0,0.,24.0,3.,24.0,0.,24.0
1979-08-06 16:31:44.810 ,4,0,1.,24.0,0.,24.0,4.,24.0,0.,24.0
1979-08-06 16:32:08.810 ,3,1,0.,24.0,0.,24.0,5.,24.0,0.,24.0
1979-08-06 16:32:32.810 ,3,0,0.,24.0,0.,24.0,2.,24.0,0.,24.0
1979-08-06 16:32:56.810 ,2,1,0.,24.0,0.,24.0,4.,24.0,0.,24.0
1979-08-06 16:33:20.810 ,2,0,0.,24.0,0.,24.0,1.,24.0,0.,24.0
1979-08-06 16:33:44.810 ,1,1,0.,24.0,0.,24.0,2.,24.0,0.,24.0
1979-08-06 16:34:08.810 ,0,0,0.,24.0,0.,24.0,2.,24.0,0.,24.0
1979-08-06 16:39:05.210 ,0,0,0.,24.0,0.,24.0,4.,24.0,0.,24.0
1979-08-06 16:39:20.810 ,5,1,0.,24.0,1.,24.0,5.,24.0,0.,24.0
1979-08-06 16:39:44.810 ,5,0,0.,24.0,0.,24.0,5.,24.0,0.,24.0
1979-08-06 16:40:08.810 ,6,1,0.,24.0,0.,24.0,3.,24.0,0.,24.0
1979-08-06 16:40:32.810 ,6,0,0.,24.0,0.,24.0,2.,24.0,0.,24.0
1979-08-06 16:40:56.810 ,7,1,3.,24.0,0.,24.0,2.,24.0,0.,24.0
1979-08-06 16:41:20.810 ,7,0,25.,24.0,0.,24.0,0.,24.0,0.,24.0
1979-08-06 16:41:44.810 ,7,1,30.,24.0,0.,24.0,1.,24.0,0.,24.0
1979-08-06 16:42:08.810 ,7,0,30.,24.0,0.,24.0,3.,24.0,0.,24.0
1979-08-06 16:42:32.810 ,6,1,28.,24.0,0.,24.0,3.,24.0,0.,24.0
1979-08-06 16:42:56.810 ,6,0,0.,24.0,0.,24.0,1.,24.0,0.,24.0
1979-08-06 16:43:20.810 ,5,1,0.,24.0,1.,24.0,3.,24.0,0.,24.0
1979-08-06 16:43:44.810 ,5,0,0.,24.0,0.,24.0,1.,24.0,0.,24.0
1979-08-06 16:44:08.810 ,4,1,0.,24.0,0.,24.0,3.,24.0,0.,24.0
1979-08-06 16:44:32.810 ,4,0,0.,24.0,0.,24.0,3.,24.0,0.,24.0
1979-08-06 16:44:56.810 ,3,1,0.,24.0,0.,24.0,3.,24.0,0.,24.0
1979-08-06 16:45:20.810 ,3,0,0.,24.0,1.,24.0,1.,24.0,0.,24.0
1979-08-06 16:45:44.810 ,2,1,0.,24.0,0.,24.0,0.,24.0,0.,24.0
1979-08-06 16:46:08.810 ,2,0,1.,24.0,0.,24.0,2.,24.0,0.,24.0
1979-08-06 16:46:32.810 ,1,1,0.,24.0,0.,24.0,0.,24.0,0.,24.0
1979-08-06 16:46:56.810 ,1,0,0.,24.0,0.,24.0,2.,24.0,0.,24.0
1979-08-06 16:47:20.810 ,0,1,0.,24.0,1.,24.0,2.,24.0,0.,24.0
1979-08-06 16:47:44.810 ,0,0,0.,24.0,1.,24.0,1.,24.0,0.,24.0
1979-08-06 16:48:08.810 ,0,1,1.,24.0,0.,24.0,1.,24.0,0.,24.0
1979-08-06 16:48:32.810 ,0,0,0.,24.0,0.,24.0,2.,24.0,0.,24.0
1979-08-06 16:48:56.810 ,1,1,1.,24.0,1.,24.0,0.,24.0,0.,24.0
1979-08-06 16:49:20.810 ,1,0,0.,24.0,0.,24.0,2.,24.0,0.,24.0
1979-08-06 16:49:44.810 ,2,1,1.,24.0,0.,24.0,0.,24.0,0.,24.0
1979-08-06 16:50:08.810 ,2,0,0.,24.0,0.,24.0,2.,24.0,0.,24.0
1979-08-06 16:50:32.810 ,3,1,0.,24.0,0.,24.0,2.,24.0,0.,24.0
1979-08-06 16:50:56.810 ,3,0,0.,24.0,0.,24.0,1.,24.0,0.,24.0
1979-08-06 16:51:20.810 ,4,1,0.,24.0,0.,24.0,1.,24.0,0.,24.0
1979-08-06 16:51:44.810 ,4,0,0.,24.0,0.,24.0,2.,24.0,0.,24.0
1979-08-06 16:52:08.810 ,5,1,0.,24.0,0.,24.0,2.,24.0,0.,24.0
1979-08-06 16:52:32.810 ,5,0,0.,24.0,0.,24.0,2.,24.0,0.,24.0
1979-08-06 16:52:56.810 ,6,1,0.,24.0,0.,24.0,0.,24.0,0.,24.0
1979-08-06 16:53:20.810 ,6,0,0.,24.0,0.,24.0,1.,24.0,0.,24.0
1979-08-06 16:53:44.810 ,7,1,12.,24.0,0.,24.0,1.,24.0,0.,24.0
1979-08-06 16:54:08.810 ,7,0,20.,24.0,0.,24.0,1.,24.0,0.,24.0
1979-08-06 16:54:32.810 ,7,1,25.,24.0,0.,24.0,1.,24.0,0.,24.0
1979-08-06 16:54:56.810 ,7,0,28.,24.0,0.,24.0,4.,24.0,0.,24.0
1979-08-06 16:55:20.810 ,6,1,24.,24.0,0.,24.0,2.,24.0,0.,24.0
1979-08-06 16:55:44.810 ,6,0,0.,24.0,0.,24.0,2.,24.0,0.,24.0
1979-08-06 16:56:08.810 ,5,1,0.,24.0,0.,24.0,3.,24.0,0.,24.0
1979-08-06 16:56:32.810 ,5,0,0.,24.0,0.,24.0,0.,24.0,0.,24.0
1979-08-06 16:56:56.810 ,4,1,0.,24.0,1.,24.0,2.,24.0,0.,24.0
1979-08-06 16:57:20.810 ,4,0,0.,24.0,0.,24.0,1.,24.0,0.,24.0
1979-08-06 16:57:44.810 ,3,1,0.,24.0,0.,24.0,1.,24.0,0.,24.0
1979-08-06 16:58:08.810 ,3,0,1.,24.0,0.,24.0,0.,24.0,0.,24.0
1979-08-06 16:58:32.810 ,2,1,0.,24.0,0.,24.0,0.,24.0,0.,24.0
1979-08-06 16:58:56.810 ,2,0,0.,24.0,0.,24.0,0.,24.0,0.,24.0
1979-08-06 16:59:20.810 ,1,1,0.,24.0,0.,24.0,1.,24.0,0.,24.0
1979-08-06 16:59:44.810 ,1,0,0.,24.0,0.,24.0,2.,24.0,0.,24.0
1979-08-06 17:00:08.810 ,0,1,1.,24.0,0.,24.0,0.,24.0,0.,24.0
1979-08-06 17:00:32.810 ,0,0,1.,24.0,0.,24.0,1.,24.0,0.,24.0
1979-08-06 17:00:56.810 ,0,1,1.,24.0,0.,24.0,2.,24.0,0.,24.0
1979-08-06 17:01:20.810 ,0,0,2.,24.0,0.,24.0,1.,24.0,0.,24.0
1979-08-06 17:01:44.810 ,1,1,0.,24.0,0.,24.0,0.,24.0,0.,24.0
1979-08-06 17:02:08.810 ,1,0,0.,24.0,0.,24.0,1.,24.0,0.,24.0
1979-08-06 17:02:32.810 ,2,1,0.,24.0,0.,24.0,0.,24.0,0.,24.0
1979-08-06 17:02:56.810 ,2,0,0.,24.0,0.,24.0,0.,24.0,0.,24.0
1979-08-06 17:03:20.810 ,3,1,0.,24.0,0.,24.0,1.,24.0,0.,24.0
1979-08-06 17:03:44.810 ,3,0,0.,24.0,0.,24.0,2.,24.0,0.,24.0
1979-08-06 17:04:08.810 ,4,1,0.,24.0,0.,24.0,1.,24.0,0.,24.0
1979-08-06 17:04:32.810 ,4,0,0.,24.0,0.,24.0,2.,24.0,0.,24.0
1979-08-06 17:04:56.810 ,5,1,0.,24.0,0.,24.0,1.,24.0,0.,24.0
1979-08-06 17:05:20.810 ,5,0,0.,24.0,0.,24.0,0.,24.0,0.,24.0
1979-08-06 17:05:44.810 ,6,1,0.,24.0,0.,24.0,2.,24.0,0.,24.0
1979-08-06 17:06:08.800 ,6,0,0.,24.0,0.,24.0,0.,24.0,0.,24.0
1979-08-06 17:06:32.810 ,7,0,9.,24.0,0.,24.0,0.,24.0,0.,24.0
1979-08-06 17:06:56.810 ,7,0,38.,24.0,0.,24.0,2.,24.0,0.,24.0
1979-08-06 17:07:20.810 ,5,1,16.,24.0,0.,24.0,0.,24.0,0.,24.0
1979-08-06 17:07:44.810 ,1,1,0.,24.0,0.,24.0,1.,24.0,0.,24.0
1979-08-06 17:08:08.800 ,2,1,0.,24.0,0.,24.0,1.,24.0,0.,24.0
1979-08-06 17:08:32.800 ,6,1,0.,24.0,0.,24.0,2.,24.0,0.,24.0
1979-08-06 17:08:56.800 ,5,1,18.,24.0,0.,24.0,3.,24.0,0.,24.0
1979-08-06 17:09:20.800 ,1,1,0.,24.0,0.,24.0,1.,24.0,0.,24.0
1979-08-06 17:09:44.800 ,2,1,1.,24.0,0.,24.0,0.,24.0,0.,24.0
1979-08-06 17:10:08.800 ,6,1,0.,24.0,0.,24.0,1.,24.0,0.,24.0
1979-08-06 17:10:32.800 ,5,1,17.,24.0,0.,24.0,0.,24.0,0.,24.0
1979-08-06 17:10:56.800 ,1,1,0.,24.0,0.,24.0,1.,24.0,0.,24.0
1979-08-06 17:11:20.800 ,2,1,0.,24.0,1.,24.0,0.,24.0,0.,24.0
1979-08-06 17:11:44.800 ,6,1,0.,24.0,0.,24.0,0.,24.0,0.,24.0
1979-08-06 17:11:44.800 ,6,1,0.,24.0,0.,24.0,0.,24.0,0.,24.0
1979-08-06 17:12:08.800 ,5,1,17.,24.0,0.,24.0,2.,24.0,0.,24.0
1979-08-06 17:12:32.800 ,1,1,0.,24.0,0.,24.0,1.,24.0,0.,24.0
1979-08-06 17:12:56.800 ,2,1,0.,24.0,0.,24.0,0.,24.0,0.,24.0
1979-08-06 17:13:20.800 ,6,1,0.,24.0,0.,24.0,1.,24.0,0.,24.0
1979-08-06 17:13:44.800 ,5,1,19.,24.0,0.,24.0,0.,24.0,0.,24.0
1979-08-06 17:14:08.800 ,1,1,0.,24.0,0.,24.0,0.,24.0,0.,24.0
1979-08-06 17:14:32.800 ,2,1,0.,24.0,0.,24.0,1.,24.0,0.,24.0
1979-08-06 17:14:56.800 ,6,1,1.,24.0,0.,24.0,0.,24.0,0.,24.0
1979-08-06 17:15:20.800 ,5,1,19.,24.0,0.,24.0,1.,24.0,0.,24.0
1979-08-06 17:15:44.800 ,1,1,0.,24.0,0.,24.0,0.,24.0,0.,24.0
1979-08-06 17:16:08.800 ,2,1,0.,24.0,0.,24.0,0.,24.0,0.,24.0
1979-08-06 17:16:32.800 ,6,1,0.,24.0,0.,24.0,3.,24.0,0.,24.0
1979-08-06 17:16:56.800 ,5,1,22.,24.0,0.,24.0,0.,24.0,0.,24.0
1979-08-06 17:17:20.810 ,1,1,0.,24.0,0.,24.0,1.,24.0,0.,24.0
1979-08-06 17:17:44.810 ,0,0,0.,24.0,0.,24.0,1.,24.0,0.,24.0
1979-08-06 17:18:08.810 ,0,0,0.,24.0,0.,24.0,0.,24.0,0.,24.0
1979-08-06 17:18:32.810 ,5,1,10.,24.0,0.,24.0,0.,24.0,0.,24.0
1979-08-06 17:18:56.810 ,5,0,0.,24.0,0.,24.0,0.,24.0,0.,24.0
1979-08-06 17:19:20.810 ,4,1,1.,24.0,0.,24.0,1.,24.0,0.,24.0
1979-08-06 17:19:44.810 ,4,0,0.,24.0,0.,24.0,1.,24.0,0.,24.0
1979-08-06 17:20:08.810 ,3,1,0.,24.0,0.,24.0,1.,24.0,0.,24.0
1979-08-06 17:20:32.810 ,3,0,0.,24.0,0.,24.0,0.,24.0,0.,24.0
1979-08-06 17:20:56.810 ,2,1,0.,24.0,0.,24.0,1.,24.0,0.,24.0
1979-08-06 17:21:20.810 ,2,0,1.,24.0,0.,24.0,0.,24.0,0.,24.0
1979-08-06 17:21:44.800 ,1,1,0.,24.0,0.,24.0,1.,24.0,0.,24.0
1979-08-06 17:22:08.800 ,1,0,0.,24.0,0.,24.0,0.,24.0,0.,24.0
1979-08-06 17:22:32.800 ,0,1,1.,24.0,0.,24.0,1.,24.0,0.,24.0
1979-08-06 17:22:56.800 ,0,0,0.,24.0,0.,24.0,1.,24.0,0.,24.0
1979-08-06 17:23:20.800 ,0,1,0.,24.0,0.,24.0,0.,24.0,0.,24.0
1979-08-06 17:23:44.800 ,0,0,0.,24.0,0.,24.0,0.,24.0,0.,24.0
1979-08-06 17:24:08.800 ,1,1,0.,24.0,0.,24.0,0.,24.0,0.,24.0
1979-08-06 17:24:32.800 ,1,0,0.,24.0,0.,24.0,0.,24.0,0.,24.0
1979-08-06 17:24:56.800 ,2,1,0.,24.0,0.,24.0,0.,24.0,0.,24.0
1979-08-06 17:25:20.800 ,2,0,0.,24.0,0.,24.0,1.,24.0,0.,24.0
1979-08-06 17:25:44.800 ,3,1,0.,24.0,0.,24.0,0.,24.0,0.,24.0
1979-08-06 17:26:08.800 ,3,0,0.,24.0,0.,24.0,0.,24.0,0.,24.0
1979-08-06 17:26:32.800 ,4,1,0.,24.0,0.,24.0,1.,24.0,0.,24.0
1979-08-06 17:26:56.800 ,4,0,0.,24.0,0.,24.0,0.,24.0,0.,24.0
1979-08-06 17:27:20.800 ,5,1,0.,24.0,0.,24.0,1.,24.0,0.,24.0
1979-08-06 17:27:44.800 ,5,0,1.,24.0,0.,24.0,0.,24.0,0.,24.0
1979-08-06 17:28:08.800 ,6,1,0.,24.0,0.,24.0,2.,24.0,0.,24.0
1979-08-06 17:28:32.800 ,6,0,0.,24.0,0.,24.0,2.,24.0,0.,24.0
1979-08-06 17:28:56.800 ,7,1,8.,24.0,0.,24.0,1.,24.0,0.,24.0
1979-08-06 17:29:20.800 ,7,0,44.,24.0,0.,24.0,1.,24.0,0.,24.0
1979-08-06 17:29:44.800 ,7,1,39.,24.0,0.,24.0,2.,24.0,0.,24.0
1979-08-06 17:30:08.800 ,7,0,31.,24.0,0.,24.0,1.,24.0,0.,24.0
1979-08-06 17:30:32.800 ,6,1,29.,24.0,0.,24.0,0.,24.0,0.,24.0
1979-08-06 17:30:56.800 ,6,0,0.,24.0,0.,24.0,1.,24.0,0.,24.0
1979-08-06 17:31:20.800 ,5,1,0.,24.0,0.,24.0,2.,24.0,0.,24.0
1979-08-06 17:31:44.800 ,5,0,0.,24.0,0.,24.0,0.,24.0,0.,24.0
1979-08-06 17:32:08.800 ,4,1,0.,24.0,0.,24.0,0.,24.0,0.,24.0
1979-08-06 17:32:32.800 ,4,0,0.,24.0,0.,24.0,0.,24.0,0.,24.0
1979-08-06 17:32:56.800 ,3,1,0.,24.0,0.,24.0,0.,24.0,0.,24.0
1979-08-06 17:33:20.800 ,3,0,0.,24.0,0.,24.0,0.,24.0,0.,24.0
1979-08-06 17:33:44.800 ,2,1,0.,24.0,0.,24.0,0.,24.0,0.,24.0
1979-08-06 17:34:08.800 ,2,0,0.,24.0,0.,24.0,0.,24.0,0.,24.0
1979-08-06 17:34:32.800 ,1,1,0.,24.0,0.,24.0,0.,24.0,0.,24.0
1979-08-06 17:34:56.800 ,1,0,0.,24.0,0.,24.0,1.,24.0,0.,24.0
1979-08-06 17:35:20.800 ,0,1,0.,24.0,0.,24.0,0.,24.0,0.,24.0
1979-08-06 17:35:44.800 ,0,0,0.,24.0,0.,24.0,0.,24.0,0.,24.0
1979-08-06 17:36:08.800 ,0,1,0.,24.0,0.,24.0,0.,24.0,0.,24.0
1979-08-06 17:36:32.800 ,0,0,0.,24.0,0.,24.0,1.,24.0,0.,24.0
1979-08-06 17:36:56.800 ,1,1,0.,24.0,0.,24.0,3.,24.0,0.,24.0
1979-08-06 17:37:20.800 ,1,0,0.,24.0,0.,24.0,1.,24.0,0.,24.0
1979-08-06 17:37:44.800 ,2,1,0.,24.0,0.,24.0,0.,24.0,0.,24.0
1979-08-06 17:38:08.800 ,2,0,0.,24.0,0.,24.0,2.,24.0,0.,24.0